TimeEST,TemperatureF,Dew PointF,Humidity,Sea Level PressureIn,VisibilityMPH,Wind Direction,Wind SpeedMPH,Gust SpeedMPH,PrecipitationIn,Events,Conditions,WindDirDegrees,DateUTC
12:15 AM,32.0,23.0,69,30.39,10.0,NE,15.0,23.0,N/A,,Overcast,40,2014-02-12 05:15:00
12:35 AM,32.0,22.6,68,30.38,10.0,NE,16.1,26.5,N/A,,Overcast,40,2014-02-12 05:35:00
12:55 AM,32.0,22.6,68,30.38,10.0,NE,16.1,24.2,N/A,,Overcast,40,2014-02-12 05:55:00
1:15 AM,32.0,21.9,66,30.39,10.0,NE,17.3,25.3,N/A,,Overcast,40,2014-02-12 06:15:00
1:35 AM,32.0,21.4,65,30.38,10.0,NE,21.9,25.3,N/A,,Overcast,40,2014-02-12 06:35:00
1:55 AM,32.0,21.7,66,30.38,10.0,NE,15.0,27.6,N/A,,Overcast,40,2014-02-12 06:55:00
2:15 AM,32.0,22.8,69,30.39,10.0,NE,13.8,21.9,N/A,,Overcast,40,2014-02-12 07:15:00
2:35 AM,32.0,22.1,67,30.39,10.0,NNE,13.8,25.3,N/A,,Overcast,30,2014-02-12 07:35:00
2:55 AM,31.6,22.3,68,30.38,10.0,NE,19.6,24.2,N/A,,Scattered Clouds,40,2014-02-12 07:55:00
3:15 AM,31.6,22.8,70,30.38,10.0,NE,18.4,26.5,N/A,,Scattered Clouds,40,2014-02-12 08:15:00
3:35 AM,31.6,23.0,70,30.37,10.0,NE,18.4,25.3,N/A,,Scattered Clouds,40,2014-02-12 08:35:00
3:55 AM,31.5,23.5,73,30.37,10.0,NE,16.1,24.2,N/A,,Scattered Clouds,40,2014-02-12 08:55:00
4:15 AM,31.6,23.7,73,30.38,10.0,NE,17.3,24.2,N/A,,Scattered Clouds,50,2014-02-12 09:15:00
4:35 AM,31.5,23.2,71,30.39,10.0,NE,18.4,26.5,N/A,,Clear,40,2014-02-12 09:35:00
4:55 AM,32.0,24.1,73,30.39,10.0,NE,17.3,20.7,N/A,,Clear,40,2014-02-12 09:55:00
5:15 AM,32.0,24.8,75,30.38,10.0,NE,17.3,25.3,N/A,,Scattered Clouds,40,2014-02-12 10:15:00
5:35 AM,32.2,24.8,74,30.39,10.0,NE,18.4,24.2,N/A,,Mostly Cloudy,50,2014-02-12 10:35:00
5:55 AM,32.4,25.5,76,30.39,10.0,NE,15.0,-,N/A,,Mostly Cloudy,50,2014-02-12 10:55:00
6:15 AM,32.4,25.7,76,30.39,10.0,NE,15.0,19.6,N/A,,Mostly Cloudy,50,2014-02-12 11:15:00
6:35 AM,32.9,25.7,75,30.39,10.0,NE,16.1,23.0,N/A,,Mostly Cloudy,50,2014-02-12 11:35:00
6:55 AM,33.4,25.7,73,30.40,10.0,NE,17.3,21.9,N/A,,Mostly Cloudy,40,2014-02-12 11:55:00
7:15 AM,33.8,26.2,74,30.39,10.0,NE,16.1,20.7,N/A,,Scattered Clouds,50,2014-02-12 12:15:00
7:35 AM,33.8,26.8,75,30.38,10.0,NE,15.0,25.3,N/A,,Scattered Clouds,50,2014-02-12 12:35:00
7:55 AM,34.3,27.1,75,30.38,10.0,NE,16.1,23.0,N/A,,Clear,50,2014-02-12 12:55:00
8:15 AM,34.7,27.3,74,30.37,10.0,NE,18.4,24.2,N/A,,Clear,50,2014-02-12 13:15:00
8:35 AM,35.2,27.9,74,30.37,10.0,NE,17.3,23.0,N/A,,Clear,50,2014-02-12 13:35:00
8:55 AM,36.0,28.4,74,30.38,10.0,NE,17.3,21.9,N/A,,Scattered Clouds,50,2014-02-12 13:55:00
9:15 AM,36.5,29.3,75,30.38,10.0,ENE,13.8,19.6,N/A,,Scattered Clouds,60,2014-02-12 14:15:00
9:35 AM,37.2,28.6,71,30.38,10.0,ENE,16.1,20.7,N/A,,Scattered Clouds,60,2014-02-12 14:35:00
9:55 AM,37.4,29.8,74,30.37,10.0,NE,16.1,20.7,N/A,,Clear,50,2014-02-12 14:55:00
10:15 AM,37.9,28.4,69,30.37,10.0,NE,13.8,-,N/A,,Clear,50,2014-02-12 15:15:00
10:35 AM,38.3,29.8,72,30.36,10.0,NE,15.0,20.7,N/A,,Mostly Cloudy,50,2014-02-12 15:35:00
10:55 AM,38.5,30.9,74,30.36,10.0,NE,15.0,20.7,N/A,,Overcast,50,2014-02-12 15:55:00
11:15 AM,38.7,30.4,72,30.35,10.0,NE,15.0,20.7,N/A,,Overcast,50,2014-02-12 16:15:00
11:35 AM,38.5,30.9,74,30.34,10.0,NE,12.7,19.6,N/A,,Overcast,50,2014-02-12 16:35:00
11:55 AM,38.7,31.3,75,30.33,10.0,NE,12.7,18.4,N/A,,Overcast,50,2014-02-12 16:55:00
12:15 PM,39.0,32.0,76,30.32,10.0,NE,15.0,18.4,N/A,,Overcast,50,2014-02-12 17:15:00
12:35 PM,39.2,32.0,75,30.31,10.0,NE,13.8,18.4,N/A,,Overcast,40,2014-02-12 17:35:00
12:55 PM,39.2,32.5,77,30.29,10.0,NE,12.7,-,N/A,,Light Drizzle,40,2014-02-12 17:55:00
1:15 PM,39.2,33.1,79,30.27,10.0,NE,13.8,-,N/A,,Drizzle,50,2014-02-12 18:15:00
1:35 PM,39.2,32.9,78,30.26,10.0,NE,13.8,-,N/A,,Overcast,50,2014-02-12 18:35:00
1:55 PM,39.6,33.1,78,30.26,10.0,NE,13.8,20.7,N/A,,Overcast,40,2014-02-12 18:55:00
2:15 PM,39.7,34.2,80,30.25,10.0,NE,15.0,20.7,N/A,,Drizzle,40,2014-02-12 19:15:00
2:35 PM,39.4,34.9,84,30.23,10.0,NE,15.0,20.7,N/A,Rain,Rain,40,2014-02-12 19:35:00
2:55 PM,39.4,36.1,88,30.21,10.0,NE,17.3,23.0,0.01,,Drizzle,40,2014-02-12 19:55:00
3:15 PM,39.6,36.7,89,30.20,10.0,NE,16.1,20.7,N/A,Rain,Rain,40,2014-02-12 20:15:00
3:35 PM,39.6,36.9,90,30.19,10.0,NE,18.4,25.3,N/A,Rain,Rain,40,2014-02-12 20:35:00
3:55 PM,39.7,37.6,92,30.18,10.0,NE,13.8,24.2,0.01,,Drizzle,40,2014-02-12 20:55:00
4:15 PM,39.9,37.9,93,30.18,10.0,NE,15.0,-,0.01,Rain,Light Rain,40,2014-02-12 21:15:00
4:35 PM,40.3,38.7,94,30.16,7.0,NE,16.1,21.9,0.02,Rain,Light Rain,40,2014-02-12 21:35:00
4:55 PM,40.3,39.2,96,30.15,7.0,NE,13.8,-,0.05,Rain,Light Rain,40,2014-02-12 21:55:00
5:15 PM,41.0,39.7,95,30.14,7.0,NE,13.8,19.6,0.02,Rain,Rain,40,2014-02-12 22:15:00
5:35 PM,41.7,40.8,97,30.14,7.0,NE,12.7,-,0.04,Rain,Light Rain,40,2014-02-12 22:35:00
5:55 PM,42.8,41.9,97,30.13,7.0,NE,9.2,-,0.06,Rain,Light Rain,50,2014-02-12 22:55:00
6:15 PM,43.0,42.3,97,30.12,7.0,NE,9.2,-,0.02,Rain,Rain,50,2014-02-12 23:15:00
6:35 PM,43.5,42.8,97,30.11,7.0,ENE,10.4,-,0.04,,Drizzle,70,2014-02-12 23:35:00
6:55 PM,43.7,42.8,97,30.09,10.0,ENE,11.5,-,0.06,,Drizzle,70,2014-02-12 23:55:00
7:15 PM,44.4,43.2,95,30.08,10.0,East,12.7,-,N/A,,Overcast,80,2014-02-13 00:15:00
7:35 PM,45.0,43.0,93,30.06,10.0,East,13.8,19.6,N/A,,Overcast,90,2014-02-13 00:35:00
7:55 PM,46.0,42.8,88,30.05,10.0,East,16.1,21.9,N/A,,Overcast,90,2014-02-13 00:55:00
8:15 PM,46.4,42.8,87,30.03,10.0,East,17.3,23.0,N/A,,Overcast,90,2014-02-13 01:15:00
8:35 PM,46.6,43.2,88,30.01,10.0,East,15.0,21.9,N/A,,Overcast,100,2014-02-13 01:35:00
8:55 PM,47.1,43.7,88,29.99,10.0,East,16.1,21.9,N/A,,Overcast,100,2014-02-13 01:55:00
9:15 PM,47.3,43.7,87,29.98,10.0,East,15.0,23.0,N/A,,Overcast,100,2014-02-13 02:15:00
9:35 PM,47.3,44.1,88,29.96,10.0,East,15.0,21.9,N/A,,Overcast,100,2014-02-13 02:35:00
9:55 PM,47.1,45.0,92,29.93,10.0,East,16.1,20.7,N/A,,Overcast,100,2014-02-13 02:55:00
10:15 PM,47.3,45.3,93,29.90,10.0,ESE,20.7,25.3,N/A,,Overcast,110,2014-02-13 03:15:00
10:35 PM,47.7,45.5,92,29.88,10.0,East,17.3,25.3,N/A,,Overcast,100,2014-02-13 03:35:00
10:55 PM,48.2,45.5,90,29.86,10.0,ESE,19.6,26.5,N/A,,Overcast,110,2014-02-13 03:55:00
11:15 PM,48.9,46.2,90,29.82,10.0,ESE,21.9,29.9,N/A,,Overcast,110,2014-02-13 04:15:00
11:35 PM,48.7,46.8,93,29.79,10.0,ESE,20.7,28.8,N/A,,Overcast,110,2014-02-13 04:35:00
11:55 PM,48.7,47.3,95,29.75,10.0,ESE,21.9,28.8,N/A,,Mostly Cloudy,110,2014-02-13 04:55:00